This demonstration page uses our WeatherBlox Daily Observations layout. Learn more.

Left ArrowRight Arrow

39.08367, -84.50855

Hourly Observations for April 12, 2015

Temp ( °F °C ) Dew Point ( °F °C ) Humidity (%) Winds ( mph kmh ) Pressure ( in mb ) Visibility ( mi km ) Precip ( " mm )
12:53 am 00:53 Clear 44 6.7 39 3.9 83 83 Calm 30.25 1025 10 16.0934 0 0
1:53 am 01:53 Clear 43 6.1 40 4.4 89 89 Calm 30.26 1025 10 16.0934 0 0
2:53 am 02:53 Clear 42 5.6 40 4.4 92 92 Calm 30.24 1024 10 16.0934 0 0
3:53 am 03:53 Clear 41 5 40 4.4 96 96 Calm 30.24 1024 9 14.48406 0 0
4:53 am 04:53 Clear 40 4.4 39 3.9 97 97 Calm 30.24 1024 10 16.0934 0 0
5:39 am 05:39 Clear with Mist and Fog 39 3.9 39 3.9 100 100 Calm 30.24 1024 1.75 2.816345 0 0
5:48 am 05:48 Clear with Mist and Fog 39 4 39 4 100 100 Calm 30.24 1024 3 4.82802 0 0
5:53 am 05:53 Clear 39 3.9 39 3.9 100 100 Calm 30.24 1024 8 12.87472 0 0
6:33 am 06:33 Clear with Mist and Fog 38 3.3 38 3.3 100 100 Calm 30.24 1024 1 1.60934 0 0
6:44 am 06:44 Clear with Mist and Fog 39 4 39 4 100 100 Calm 30.24 1024 6 9.65604 0 0
6:53 am 06:53 Clear 39 3.9 39 3.9 100 100 Calm 30.25 1024 10 16.0934 0 0
7:19 am 07:19 Sunny with Mist and Fog 39 3.9 39 3.9 100 100 Calm 30.27 1025 1.75 2.816345 0 0
7:31 am 07:31 Sunny 38 3.3 38 3.3 100 100 Calm 30.27 1025 10 16.0934 0 0
7:53 am 07:53 Sunny 40 4.4 40 4.4 100 100 Calm 30.26 1025 10 16.0934 0 0
8:53 am 08:53 Sunny 45 7.2 42 5.6 90 90 Calm 30.27 1025 10 16.0934 0 0
9:53 am 09:53 Sunny 52 11.1 41 5 66 66 Calm 30.25 1025 10 16.0934 0 0
10:53 am 10:53 Sunny 58 14.4 39 3.9 50 50 Calm 30.24 1024 10 16.0934 0 0
11:53 am 11:53 Sunny 65 18.3 37 2.8 36 36 VRB 5 7 30.22 1024 10 16.0934 0 0
12:53 pm 12:53 Sunny 67 19.4 35 1.7 31 31 S 7 11 30.2 1023 10 16.0934 0 0
1:53 pm 13:53 Sunny 69 20.6 39 3.9 33 33 SSE 6 9 30.17 1022 10 16.0934 0 0
2:53 pm 14:53 Sunny 70 21.1 33 0.6 26 26 VRB 6 9 30.14 1021 10 16.0934 0 0
3:53 pm 15:53 Sunny 71 21.7 36 2.2 28 28 SSW 7 11 30.12 1020 10 16.0934 0 0
4:53 pm 16:53 Sunny 73 22.8 36 2.2 26 26 W 3 6 30.11 1020 10 16.0934 0 0
5:53 pm 17:53 Sunny 74 23.3 35 1.7 24 24 Calm 30.1 1019 10 16.0934 0 0
6:53 pm 18:53 Sunny 71 21.7 39 3.9 31 31 SSE 6 9 30.1 1019 10 16.0934 0 0
7:53 pm 19:53 Sunny 70 21.1 32 0 25 25 Calm 30.08 1019 10 16.0934 0 0
8:53 pm 20:53 Clear 62 16.7 47 8.3 58 58 Calm 30.08 1019 10 16.0934 0 0
9:53 pm 21:53 Clear 59 15 47 8.3 64 64 Calm 30.08 1019 10 16.0934 0 0
10:53 pm 22:53 Clear 57 13.9 45 7.2 64 64 Calm 30.08 1019 10 16.0934 0 0
11:53 pm 23:53 Clear 55 12.8 42 5.6 62 62 Calm 30.08 1019 10 16.0934 0 0

Powered by AerisWeather